Home   Weather   Kumanovo   Past weeks

Flag for Macedonia, Republic of Past Weather in Kumanovo, Macedonia, Republic of — Yesterday and Last 2 Weeks

Now
84 °F

Clear.


Feels Like: 82 °F
Forecast: 66 / 101 °F
Wind: 5 mph from Northeast

Location: Skopje-Petrovec

Current Time: Jul 21, 2017 at 9:09:48 pm

Latest Report: Jul 21, 2017 at 8:30 pm


Visibility: 10 mi

Pressure: 29.95 "Hg

Humidity: 33%

Dew Point: 52 °F

Location of KumanovoLocation

Past Weather in Kumanovo — Graph

°F

Kumanovo Temperature Yesterday

Maximum temperature yesterday: 93 °F (at 3:30 pm)
Minimum temperature yesterday: 55 °F (at 5:00 am)
Average temperature yesterday: 73 °F

High & Low Weather Summary for the Past Weeks

 TemperatureHumidityPressure
High102 °F (Jul 11, 4:00 pm)94% (Jul 16, 12:30 pm)30.18 "Hg (Jul 16, 12:30 pm)
Low54 °F (Jul 19, 5:30 am)15% (Jul 12, 5:30 pm)29.80 "Hg (Jul 14, 4:30 pm)
Average77 °F49%29.99 "Hg
* Reported Jul 6 7:00 pm — Jul 21 7:30 pm, Kumanovo. Weather by CustomWeather, © 2017

Note: Actual official high and low records may vary slightly from our data, if they occured in-between our weather recording intervals... More about our weather records

Advertising

Kumanovo Weather History for the Previous 24 Hours

Scroll right to see more
 ConditionsComfort  
Time TempWeatherWind HumidityBarometerVisibility
7:30 pm
Fri, Jul 21
88 °FSunny.7 mph27%29.92 "Hg10 mi
7:00 pm91 °FSunny.9 mph24%29.92 "Hg10 mi
6:30 pm93 °FSunny.No wind24%29.89 "Hg10 mi
6:00 pm95 °FPassing clouds.5 mph23%29.89 "HgN/A
5:30 pm95 °FPassing clouds.5 mph23%29.89 "HgN/A
5:00 pm95 °FPassing clouds.6 mph23%29.89 "HgN/A
4:30 pm95 °FPassing clouds.6 mph23%29.92 "HgN/A
4:00 pm95 °FPassing clouds.5 mph23%29.92 "HgN/A
3:30 pm95 °FPassing clouds.6 mph23%29.92 "HgN/A
3:00 pm93 °FPassing clouds.7 mph23%29.92 "HgN/A
2:30 pm93 °FSunny.2 mph23%29.95 "Hg10 mi
2:00 pm91 °FPassing clouds.5 mph24%29.95 "HgN/A
1:00 pm90 °FSunny.No wind29%29.98 "Hg10 mi
12:30 pm88 °FSunny.No wind29%29.98 "Hg10 mi
12:00 pm84 °FSunny.No wind35%29.98 "Hg10 mi
11:30 am84 °FSunny.No wind35%29.98 "Hg10 mi
11:00 am81 °FSunny.No wind39%30.01 "Hg10 mi
10:30 am79 °FSunny.2 mph45%30.01 "Hg10 mi
10:00 am77 °FSunny.No wind47%30.01 "Hg10 mi
9:30 am73 °FSunny.No wind57%30.01 "Hg10 mi
9:00 am73 °FSunny.No wind57%30.01 "Hg10 mi
8:30 am70 °FSunny.No wind64%30.01 "Hg10 mi
8:00 am68 °FSunny.No wind69%30.01 "Hg10 mi
7:30 am66 °FSunny.No wind73%30.01 "Hg10 mi
7:00 am63 °FSunny.No wind83%30.01 "Hg10 mi
6:30 am59 °FSunny.No wind88%30.01 "Hg10 mi
6:00 am59 °FSunny.No wind88%30.01 "Hg10 mi
5:30 am57 °FSunny.No wind88%30.01 "Hg10 mi
5:00 am57 °FClear.No wind94%29.98 "Hg10 mi
4:30 am57 °FClear.No wind88%29.98 "Hg10 mi
4:00 am59 °FClear.No wind88%29.98 "Hg10 mi
3:30 am59 °FClear.No wind88%29.98 "Hg10 mi
3:00 am61 °FClear.2 mph83%29.98 "Hg10 mi
2:30 am63 °FClear.No wind77%29.98 "Hg10 mi
2:00 am63 °FClear.2 mph77%29.98 "Hg10 mi
1:30 am63 °FClear.1 mph83%29.98 "Hg10 mi
1:00 am64 °FClear.2 mph78%29.98 "Hg10 mi
12:30 am64 °FClear.2 mph78%29.98 "Hg10 mi
12:00 am64 °FClear.2 mph78%29.98 "Hg10 mi
11:30 pm
Thu, Jul 20
66 °FClear.No wind73%29.95 "Hg10 mi
11:00 pm68 °FClear.No wind69%29.95 "Hg10 mi
10:30 pm70 °FClear.1 mph64%29.95 "Hg10 mi
10:00 pm72 °FClear.2 mph61%29.95 "Hg10 mi
9:30 pm73 °FPassing clouds.6 mph53%29.95 "HgN/A
9:00 pm73 °FPassing clouds.3 mph53%29.95 "HgN/A
Weather by CustomWeather, © 2017

See weather overviewHow to use our weather pages